Location: Biberach+an+der+Riss
(48.0937°N, 9.7888°E)
Time: 04:45:26
(UTC+02:00)

ISS - Pass Details

Date: 29 September 2020
Orbit: 418 x 420 km, 51.6° (Epoch: 20 October)

Event Time Altitude Azimuth Distance (km) Brightness Sun altitude
Rises 21:04:38 0° 292° (WNW) 2,370 1.7 -20.7°
Reaches altitude 10° 21:06:45 10° 293° (WNW) 1,504 0.2 -21.1°
Enters shadow 21:09:43 64° 318° (NW) 468 -3.4 -21.5°
